Time,TemperatureF,DewpointF,PressureIn,WindDirection,WindDirectionDegrees,WindSpeedMPH,WindSpeedGustMPH,Humidity,HourlyPrecipIn,Conditions,Clouds,dailyrainin,SolarRadiationWatts/m^2,SoftwareType,DateUTC
2013-02-10 00:01:00,22.0,18.0,-100.00,NW,316,2.0,5.0,84,0.00,,,0.00,0.000000,,2013-02-10 07:01:00,
2013-02-10 00:11:00,22.0,18.0,-100.00,NW,316,2.0,5.0,84,0.00,,,0.00,0.000000,,2013-02-10 07:11:00,
2013-02-10 00:42:00,22.0,20.0,-100.00,NNW,335,2.0,6.0,92,0.00,,,0.00,0.000000,,2013-02-10 07:42:00,
2013-02-10 00:52:00,22.0,20.0,-100.00,NNW,335,2.0,6.0,92,0.00,,,0.00,0.000000,,2013-02-10 07:52:00,
2013-02-10 01:01:00,22.0,20.0,-100.00,NNW,335,2.0,6.0,92,0.00,,,0.00,0.000000,,2013-02-10 08:01:00,
2013-02-10 01:11:00,22.0,20.0,-100.00,NNW,335,2.0,6.0,92,0.00,,,0.00,0.000000,,2013-02-10 08:11:00,
2013-02-10 01:43:00,19.0,16.0,-100.00,ESE,119,3.0,4.0,89,0.00,,,0.00,0.000000,,2013-02-10 08:43:00,
2013-02-10 01:52:00,19.0,16.0,-100.00,ESE,119,3.0,4.0,89,0.00,,,0.00,0.000000,,2013-02-10 08:52:00,
2013-02-10 02:02:00,19.0,16.0,-100.00,ESE,119,3.0,4.0,89,0.00,,,0.00,0.000000,,2013-02-10 09:02:00,
2013-02-10 02:11:00,19.0,16.0,-100.00,ESE,119,3.0,4.0,89,0.00,,,0.00,0.000000,,2013-02-10 09:11:00,
2013-02-10 02:42:00,18.0,15.0,-100.00,ESE,112,5.0,7.0,86,0.00,,,0.00,0.000000,,2013-02-10 09:42:00,
2013-02-10 02:52:00,18.0,15.0,-100.00,ESE,112,5.0,7.0,86,0.00,,,0.00,0.000000,,2013-02-10 09:52:00,
2013-02-10 03:01:00,18.0,15.0,-100.00,ESE,112,5.0,7.0,86,0.00,,,0.00,0.000000,,2013-02-10 10:01:00,
2013-02-10 03:11:00,18.0,15.0,-100.00,ESE,112,5.0,7.0,86,0.00,,,0.00,0.000000,,2013-02-10 10:11:00,
2013-02-10 03:42:00,18.0,14.0,-100.00,ESE,109,4.0,7.0,85,0.00,,,0.00,0.000000,,2013-02-10 10:42:00,
2013-02-10 03:52:00,18.0,14.0,-100.00,ESE,109,4.0,7.0,85,0.00,,,0.00,0.000000,,2013-02-10 10:52:00,
2013-02-10 04:01:00,18.0,14.0,-100.00,ESE,109,4.0,7.0,85,0.00,,,0.00,0.000000,,2013-02-10 11:01:00,
2013-02-10 04:11:00,18.0,14.0,-100.00,ESE,109,4.0,7.0,85,0.00,,,0.00,0.000000,,2013-02-10 11:11:00,
2013-02-10 04:42:00,17.0,14.0,-100.00,ENE,74,1.0,5.0,86,0.00,,,0.00,0.000000,,2013-02-10 11:42:00,
2013-02-10 04:52:00,17.0,14.0,-100.00,ENE,74,1.0,5.0,86,0.00,,,0.00,0.000000,,2013-02-10 11:52:00,
2013-02-10 05:01:00,17.0,14.0,-100.00,ENE,74,1.0,5.0,86,0.00,,,0.00,0.000000,,2013-02-10 12:01:00,
2013-02-10 05:12:00,17.0,14.0,-100.00,ENE,74,1.0,5.0,86,0.00,,,0.00,0.000000,,2013-02-10 12:12:00,
2013-02-10 07:42:00,12.0,9.0,-100.00,NNE,26,2.0,4.0,89,-99.99,,,0.00,0.000000,,2013-02-10 14:42:00,
2013-02-10 07:52:00,12.0,9.0,-100.00,NNE,26,2.0,4.0,89,-99.99,,,0.00,0.000000,,2013-02-10 14:52:00,
2013-02-10 08:01:00,12.0,9.0,-100.00,NNE,26,2.0,4.0,89,-99.99,,,0.00,0.000000,,2013-02-10 15:01:00,
2013-02-10 08:11:00,12.0,9.0,-100.00,NNE,26,2.0,4.0,89,-99.99,,,0.00,0.000000,,2013-02-10 15:11:00,
2013-02-10 08:42:00,15.0,12.0,-100.00,SSE,150,2.0,3.0,89,0.00,,,0.00,4.000000,,2013-02-10 15:42:00,
2013-02-10 08:52:00,15.0,12.0,-100.00,SSE,150,2.0,3.0,89,0.00,,,0.00,4.000000,,2013-02-10 15:52:00,
2013-02-10 09:01:00,15.0,12.0,-100.00,SSE,150,2.0,3.0,89,0.00,,,0.00,4.000000,,2013-02-10 16:01:00,
2013-02-10 09:11:00,15.0,12.0,-100.00,SSE,150,2.0,3.0,89,0.00,,,0.00,4.000000,,2013-02-10 16:11:00,
2013-02-10 09:32:00,18.0,13.0,-100.00,North,356,1.0,2.0,81,0.00,,,0.00,47.000000,,2013-02-10 16:32:00,
2013-02-10 09:42:00,18.0,13.0,-100.00,North,356,1.0,2.0,81,0.00,,,0.00,47.000000,,2013-02-10 16:42:00,
2013-02-10 09:52:00,18.0,13.0,-100.00,North,356,1.0,2.0,81,0.00,,,0.00,47.000000,,2013-02-10 16:52:00,
2013-02-10 10:01:00,18.0,13.0,-100.00,North,356,1.0,2.0,81,0.00,,,0.00,47.000000,,2013-02-10 17:01:00,
2013-02-10 10:11:00,18.0,13.0,-100.00,North,356,1.0,2.0,81,0.00,,,0.00,47.000000,,2013-02-10 17:11:00,
2013-02-10 10:42:00,20.0,12.0,-100.00,SE,134,2.0,4.0,70,0.00,,,-99.99,84.000000,,2013-02-10 17:42:00,
2013-02-10 10:52:00,20.0,12.0,-100.00,SE,134,2.0,4.0,70,0.00,,,-99.99,84.000000,,2013-02-10 17:52:00,
2013-02-10 11:01:00,20.0,12.0,-100.00,SE,134,2.0,4.0,70,0.00,,,-99.99,84.000000,,2013-02-10 18:01:00,
2013-02-10 11:11:00,20.0,12.0,-100.00,SE,134,2.0,4.0,70,0.00,,,-99.99,84.000000,,2013-02-10 18:11:00,
2013-02-10 11:42:00,29.0,18.0,-100.00,North,353,2.0,4.0,64,0.09,,,0.09,150.000000,,2013-02-10 18:42:00,
2013-02-10 11:52:00,29.0,18.0,-100.00,North,353,2.0,4.0,64,0.09,,,0.09,150.000000,,2013-02-10 18:52:00,
2013-02-10 12:01:00,29.0,18.0,-100.00,North,353,2.0,4.0,64,0.09,,,0.09,150.000000,,2013-02-10 19:01:00,
2013-02-10 12:11:00,29.0,18.0,-100.00,North,353,2.0,4.0,64,0.09,,,0.09,150.000000,,2013-02-10 19:11:00,
2013-02-10 12:43:00,28.0,15.0,-100.00,NE,50,3.0,6.0,58,0.05,,,0.14,657.000000,,2013-02-10 19:43:00,
2013-02-10 12:52:00,28.0,15.0,-100.00,NE,50,3.0,6.0,58,0.05,,,0.14,657.000000,,2013-02-10 19:52:00,
2013-02-10 13:01:00,28.0,15.0,-100.00,NE,50,3.0,6.0,58,0.05,,,0.14,657.000000,,2013-02-10 20:01:00,
2013-02-10 13:11:00,28.0,15.0,-100.00,NE,50,3.0,6.0,58,0.05,,,0.14,657.000000,,2013-02-10 20:11:00,
2013-02-10 13:42:00,32.0,18.0,-100.00,South,186,1.0,5.0,56,0.00,,,0.14,661.000000,,2013-02-10 20:42:00,
2013-02-10 13:52:00,32.0,18.0,-100.00,South,186,1.0,5.0,56,0.00,,,0.14,661.000000,,2013-02-10 20:52:00,
2013-02-10 14:02:00,32.0,18.0,-100.00,South,186,1.0,5.0,56,0.00,,,0.14,661.000000,,2013-02-10 21:02:00,
2013-02-10 14:11:00,32.0,18.0,-100.00,South,186,1.0,5.0,56,0.00,,,0.14,661.000000,,2013-02-10 21:11:00,
2013-02-10 14:42:00,31.0,18.0,-100.00,South,172,3.0,5.0,59,0.00,,,0.14,360.000000,,2013-02-10 21:42:00,
2013-02-10 14:52:00,31.0,18.0,-100.00,South,172,3.0,5.0,59,0.00,,,0.14,360.000000,,2013-02-10 21:52:00,
2013-02-10 15:01:00,31.0,18.0,-100.00,South,172,3.0,5.0,59,0.00,,,0.14,360.000000,,2013-02-10 22:01:00,
2013-02-10 15:11:00,31.0,18.0,-100.00,South,172,3.0,5.0,59,0.00,,,0.14,360.000000,,2013-02-10 22:11:00,
2013-02-10 15:42:00,30.0,17.0,-100.00,SSE,167,5.0,7.0,57,0.00,,,0.14,446.000000,,2013-02-10 22:42:00,
2013-02-10 15:52:00,30.0,17.0,-100.00,SSE,167,5.0,7.0,57,0.00,,,0.14,446.000000,,2013-02-10 22:52:00,
2013-02-10 16:01:00,30.0,17.0,-100.00,SSE,167,5.0,7.0,57,0.00,,,0.14,446.000000,,2013-02-10 23:01:00,
2013-02-10 16:11:00,30.0,17.0,-100.00,SSE,167,5.0,7.0,57,0.00,,,0.14,446.000000,,2013-02-10 23:11:00,
2013-02-10 16:32:00,26.0,13.0,-100.00,South,180,2.0,5.0,58,0.00,,,0.14,160.000000,,2013-02-10 23:32:00,
2013-02-10 16:42:00,26.0,13.0,-100.00,South,180,2.0,5.0,58,0.00,,,0.14,160.000000,,2013-02-10 23:42:00,
2013-02-10 16:52:00,26.0,13.0,-100.00,South,180,2.0,5.0,58,0.00,,,0.14,160.000000,,2013-02-10 23:52:00,
2013-02-10 17:01:00,26.0,13.0,-100.00,South,180,2.0,5.0,58,0.00,,,0.14,160.000000,,2013-02-11 00:01:00,
2013-02-10 17:11:00,26.0,13.0,-100.00,South,180,2.0,5.0,58,0.00,,,0.14,160.000000,,2013-02-11 00:11:00,
2013-02-10 17:42:00,24.0,11.0,-100.00,South,189,5.0,9.0,57,0.00,,,0.14,170.000000,,2013-02-11 00:42:00,
2013-02-10 17:52:00,24.0,11.0,-100.00,South,189,5.0,9.0,57,0.00,,,0.14,170.000000,,2013-02-11 00:52:00,
2013-02-10 18:01:00,24.0,11.0,-100.00,South,189,5.0,9.0,57,0.00,,,0.14,170.000000,,2013-02-11 01:01:00,
2013-02-10 18:11:00,24.0,11.0,-100.00,South,189,5.0,9.0,57,0.00,,,0.14,170.000000,,2013-02-11 01:11:00,
2013-02-10 18:42:00,19.0,12.0,-100.00,ESE,105,5.0,7.0,75,0.00,,,0.14,19.000000,,2013-02-11 01:42:00,
2013-02-10 18:52:00,19.0,12.0,-100.00,ESE,105,5.0,7.0,75,0.00,,,0.14,19.000000,,2013-02-11 01:52:00,
2013-02-10 19:01:00,19.0,12.0,-100.00,ESE,105,5.0,7.0,75,0.00,,,0.14,19.000000,,2013-02-11 02:01:00,
2013-02-10 19:11:00,19.0,12.0,-100.00,ESE,105,5.0,7.0,75,0.00,,,0.14,19.000000,,2013-02-11 02:11:00,
2013-02-10 19:42:00,18.0,12.0,-100.00,North,4,3.0,8.0,77,0.00,,,0.14,0.000000,,2013-02-11 02:42:00,
2013-02-10 19:52:00,18.0,12.0,-100.00,North,4,3.0,8.0,77,0.00,,,0.14,0.000000,,2013-02-11 02:52:00,
2013-02-10 20:01:00,18.0,12.0,-100.00,North,4,3.0,8.0,77,0.00,,,0.14,0.000000,,2013-02-11 03:01:00,
2013-02-10 20:11:00,18.0,12.0,-100.00,North,4,3.0,8.0,77,0.00,,,0.14,0.000000,,2013-02-11 03:11:00,
2013-02-10 20:32:00,14.0,9.0,-100.00,NNE,32,1.0,7.0,79,0.00,,,0.14,0.000000,,2013-02-11 03:32:00,
2013-02-10 20:42:00,14.0,9.0,-100.00,NNE,32,1.0,7.0,79,0.00,,,0.14,0.000000,,2013-02-11 03:42:00,
2013-02-10 20:52:00,14.0,9.0,-100.00,NNE,32,1.0,7.0,79,0.00,,,0.14,0.000000,,2013-02-11 03:52:00,
2013-02-10 21:01:00,14.0,9.0,-100.00,NNE,32,1.0,7.0,79,0.00,,,0.14,0.000000,,2013-02-11 04:01:00,
2013-02-10 21:11:00,14.0,9.0,-100.00,NNE,32,1.0,7.0,79,0.00,,,0.14,0.000000,,2013-02-11 04:11:00,
2013-02-10 21:32:00,11.0,8.0,-100.00,NE,45,2.0,6.0,86,0.00,,,0.14,0.000000,,2013-02-11 04:32:00,
2013-02-10 21:42:00,11.0,8.0,-100.00,NE,45,2.0,6.0,86,0.00,,,0.14,0.000000,,2013-02-11 04:42:00,
2013-02-10 21:52:00,11.0,8.0,-100.00,NE,45,2.0,6.0,86,0.00,,,0.14,0.000000,,2013-02-11 04:52:00,
2013-02-10 22:01:00,11.0,8.0,-100.00,NE,45,2.0,6.0,86,0.00,,,0.14,0.000000,,2013-02-11 05:01:00,
2013-02-10 22:11:00,11.0,8.0,-100.00,NE,45,2.0,6.0,86,0.00,,,0.14,0.000000,,2013-02-11 05:11:00,
2013-02-10 22:42:00,9.0,5.0,-100.00,NNW,336,2.0,5.0,83,0.00,,,0.14,0.000000,,2013-02-11 05:42:00,
2013-02-10 22:52:00,9.0,5.0,-100.00,NNW,336,2.0,5.0,83,0.00,,,0.14,0.000000,,2013-02-11 05:52:00,
2013-02-10 23:01:00,9.0,5.0,-100.00,NNW,336,2.0,5.0,83,0.00,,,0.14,0.000000,,2013-02-11 06:01:00,
2013-02-10 23:11:00,9.0,5.0,-100.00,NNW,336,2.0,5.0,83,0.00,,,0.14,0.000000,,2013-02-11 06:11:00,
2013-02-10 23:42:00,11.0,7.0,-100.00,WNW,291,1.0,4.0,82,0.00,,,0.14,0.000000,,2013-02-11 06:42:00,
2013-02-10 23:52:00,11.0,7.0,-100.00,WNW,291,1.0,4.0,82,0.00,,,0.14,0.000000,,2013-02-11 06:52:00,